Jamaica, NY

6:11 PM EST on December 07, 2016 (GMT -0500)
Kennedy International

Weather History for KJFK - February, 2013

Change the Weather History Date:

Friday, February 15, 2013

  Actual Average Record
Temperature  
Mean Temperature 41 °F 35 °F  
Max Temperature 49 °F 42 °F 62 °F (1949)
Min Temperature 32 °F 28 °F 5 °F (2015)
Degree Days  
Heating Degree Days 24 30  
Month to date heating degree days 489 467  
Since 1 July heating degree days 2959 3137  
Cooling Degree Days 0 0  
Month to date cooling degree days 0 0  
Year to date cooling degree days 0 0  
Moisture  
Dew Point 34 °F    
Average Humidity 73    
Maximum Humidity 89    
Minimum Humidity 56    
Precipitation  
Precipitation T in 0.09 in 0.70 in (1992)
Month to date precipitation 1.49 1.33  
Year to date precipitation 3.88 4.49  
Snow  
Snow 0.00 in 0.30 in 2.70 in (1970)
Month to date snowfall 7.4 4.5  
Since 1 July snowfall 13.2 15.7  
Snow Depth 0.00 in    
Sea Level Pressure  
Sea Level Pressure 29.99 in    
Wind  
Wind Speed 8 mph (SSW)    
Max Wind Speed 17 mph    
Max Gust Speed 21 mph    
Visibility 9 miles    
Events Rain    
T = Trace of Precipitation, MM = Missing Value Source: NWS Daily Summary

Daily Weather History Graph

Daily Weather History Graph

Search for Another Location

Airport or City:

Trip Planner

Search our weather history database for the weather conditions in past years. The results will help you decide how hot, cold, wet, or windy it might be!

Date:

Astronomy

Feb. 15, 2013 Rise Set
Actual Time 6:48 AM EST 5:30 PM EST
Civil Twilight 6:20 AM EST 5:58 PM EST
Nautical Twilight 5:48 AM EST 6:30 PM EST
Astronomical Twilight 5:16 AM EST 7:02 PM EST
Moon 9:21 AM EST (2/15) 11:30 PM EST (2/15)
Length of Visible Light 11h 37m
Length of Day
10h 41m
Waxing Crescent, 30% of the Moon is Illuminated
Feb 15
Waxing Crescent
Feb 17
First Quarter
Feb 25
Full
Mar 4
Last Quarter
Mar 11
New

Hourly Weather History & Observations

Time (EST) Temp. Windchill Dew Point Humidity Pressure Visibility Wind Dir Wind Speed Gust Speed Precip Events Conditions
12:51 AM 34.0 °F 28.0 °F 30.0 °F 85% 30.03 in 8.0 mi SW 6.9 mph - N/A   Partly Cloudy
1:51 AM 33.1 °F 28.7 °F 30.0 °F 89% 30.03 in 8.0 mi SW 4.6 mph - N/A   Scattered Clouds
2:51 AM 34.0 °F 28.8 °F 30.9 °F 89% 30.01 in 7.0 mi SSW 5.8 mph - N/A   Scattered Clouds
3:51 AM 33.1 °F 26.9 °F 30.9 °F 92% 30.02 in 7.0 mi South 6.9 mph - N/A   Mostly Cloudy
4:51 AM 34.0 °F 28.0 °F 30.9 °F 89% 30.02 in 9.0 mi SSW 6.9 mph - N/A   Mostly Cloudy
5:51 AM 34.0 °F 28.8 °F 30.0 °F 85% 30.01 in 8.0 mi South 5.8 mph - N/A   Scattered Clouds
6:51 AM 34.0 °F 29.8 °F 30.0 °F 85% 30.01 in 9.0 mi South 4.6 mph - N/A   Scattered Clouds
7:51 AM 37.0 °F 30.4 °F 33.1 °F 86% 30.03 in 9.0 mi SW 9.2 mph - N/A   Scattered Clouds
8:51 AM 39.9 °F 33.4 °F 34.0 °F 79% 30.04 in 8.0 mi SW 10.4 mph - N/A   Scattered Clouds
9:51 AM 41.0 °F 35.2 °F 35.1 °F 79% 30.04 in 8.0 mi SSW 9.2 mph - N/A   Scattered Clouds
10:51 AM 43.0 °F 37.7 °F 34.0 °F 71% 30.04 in 8.0 mi SSW 9.2 mph - N/A   Partly Cloudy
11:51 AM 44.1 °F 39.5 °F 36.0 °F 73% 30.02 in 9.0 mi South 8.1 mph - N/A   Partly Cloudy
12:51 PM 46.9 °F - 34.0 °F 61% 29.99 in 10.0 mi South 10.4 mph - N/A   Clear
1:51 PM 48.0 °F - 34.0 °F 58% 29.98 in 10.0 mi South 9.2 mph - N/A   Partly Cloudy
2:51 PM 48.0 °F - 37.9 °F 68% 29.96 in 10.0 mi South 10.4 mph - N/A   Partly Cloudy
3:51 PM 46.0 °F 41.0 °F 37.0 °F 71% 29.95 in 10.0 mi South 10.4 mph - N/A   Partly Cloudy
4:51 PM 44.1 °F 38.1 °F 36.0 °F 73% 29.95 in 10.0 mi South 11.5 mph - N/A   Scattered Clouds
5:51 PM 42.1 °F 35.7 °F 36.0 °F 79% 29.95 in 10.0 mi South 11.5 mph - N/A   Scattered Clouds
6:51 PM 43.0 °F 36.8 °F 35.1 °F 74% 29.94 in 10.0 mi South 11.5 mph 19.6 mph N/A   Mostly Cloudy
7:51 PM 43.0 °F 38.8 °F 36.0 °F 76% 29.94 in 10.0 mi SSW 6.9 mph - N/A   Mostly Cloudy
8:51 PM 41.0 °F 37.1 °F 35.1 °F 79% 29.94 in 10.0 mi SSW 5.8 mph - N/A   Mostly Cloudy
9:51 PM 42.1 °F 38.4 °F 37.0 °F 82% 29.94 in 10.0 mi WSW 5.8 mph - N/A   Overcast
10:51 PM 46.0 °F 43.1 °F 37.0 °F 71% 29.95 in 10.0 mi WNW 5.8 mph - N/A   Overcast
11:51 PM 46.0 °F 40.2 °F 28.0 °F 50% 29.94 in 10.0 mi NW 12.7 mph - 0.00 in Rain Light Rain